"2016-03-17 00:00:00",1464411,8.64,304.2,11.02,1.502,8.13,101.322,2.673,3.954,30.75,0,110.1,13.22,3.43,266.2
"2016-03-17 00:00:30",1464412,8.4,304.8,12.31,1.437,8.49,101.322,2.673,3.957,29.4,0,110.1,13.22,3.43,266.8
"2016-03-17 00:01:00",1464413,9.31,318.6,7.332,1.669,8.34,101.322,2.673,3.938,28.61,0,110.1,13.22,3.43,280.6
"2016-03-17 00:01:30",1464414,7.392,317.1,9.14,1.468,8.17,101.3218,2.672,3.957,28.48,0,110,13.22,3.43,279.1
"2016-03-17 00:02:00",1464415,7.339,287.8,5.842,1.329,6.451,101.3203,2.668,3.782,28.78,0,110,13.22,3.43,249.8
"2016-03-17 00:02:30",1464416,6.988,297.9,9.34,1.182,6.211,101.3107,2.644,3.813,28.41,0,110.1,13.22,3.40,259.9
"2016-03-17 00:03:00",1464417,8.45,294.6,8.1,1.417,8.3,101.3048,2.629,3.924,28.7,0,110,13.22,3.39,256.6
"2016-03-17 00:03:30",1464418,7.905,298.1,9.66,1.426,8.35,101.2966,2.608,3.888,28.94,0,110,13.22,3.37,260.1
"2016-03-17 00:04:00",1464419,7.513,303.2,9.95,1.405,8.26,101.2901,2.591,3.921,28.45,0,110,13.22,3.35,265.2
"2016-03-17 00:04:30",1464420,8.1,301.4,8.26,1.377,8.19,101.2913,2.594,3.902,28.96,0,110,13.22,3.36,263.4
"2016-03-17 00:05:00",1464421,7.412,302.4,5.842,1.294,6.804,101.2904,2.592,3.807,29.94,0,110,13.22,3.35,264.4
"2016-03-17 00:05:30",1464422,6.25,305.7,10.34,1.584,6.836,101.2899,2.59,3.777,29.36,0,110,13.22,3.35,267.7
"2016-03-17 00:06:00",1464423,5.689,300.2,8.38,1.124,6.435,101.2851,2.578,3.79,29.48,0,110,13.22,3.34,262.2
"2016-03-17 00:06:30",1464424,8.05,308.8,10.16,1.355,7.278,101.2817,2.57,3.799,29.72,0,110,13.23,3.33,270.8
"2016-03-17 00:07:00",1464425,9.42,304.5,7.293,1.397,7.862,101.2761,2.555,3.832,30.69,0,110,13.23,3.32,266.5
"2016-03-17 00:07:30",1464426,9.54,310.1,7.434,1.339,7.786,101.2766,2.557,3.809,31.07,0,110,13.23,3.32,272.1
"2016-03-17 00:08:00",1464427,9.21,307.8,6.783,1.251,8.86,101.2756,2.554,3.848,31.21,0,110,13.22,3.32,269.8
"2016-03-17 00:08:30",1464428,8.13,305.8,8.87,1.328,8.1,101.2694,2.538,3.819,31.14,0,110,13.22,3.30,267.8
"2016-03-17 00:09:00",1464429,9.01,318.9,8.61,1.464,8.06,101.2697,2.539,3.797,30.03,0,110,13.22,3.30,280.9
"2016-03-17 00:09:30",1464430,8.28,313.3,9.14,1.618,6.981,101.2708,2.542,3.763,29.5,0,110,13.22,3.30,275.3
"2016-03-17 00:10:00",1464431,7.214,328.8,6.405,1.355,6.39,101.2725,2.546,3.712,28.99,0,110,13.22,3.31,290.8
"2016-03-17 00:10:30",1464432,7.487,315.2,9.63,1.483,7.503,101.2734,2.548,3.722,28.82,0,110,13.22,3.31,277.2
"2016-03-17 00:11:00",1464433,6.604,296.8,10.23,1.366,7.766,101.2745,2.551,3.725,29.37,0,110,13.22,3.31,258.8
"2016-03-17 00:11:30",1464434,8.41,300.1,7.329,1.519,8.03,101.2774,2.559,3.781,30.24,0,110,13.22,3.32,262.1
"2016-03-17 00:12:00",1464435,8.36,300,6.948,1.358,7.714,101.28,2.565,3.777,31.06,0,110,13.22,3.33,262.0
"2016-03-17 00:12:30",1464436,8.8,307.3,9.14,1.393,7.961,101.2783,2.561,3.788,30.35,0,110,13.22,3.32,269.3
"2016-03-17 00:13:00",1464437,7.881,308.4,7.29,1.516,7.38,101.2763,2.556,3.751,29.18,0,110,13.22,3.32,270.4
"2016-03-17 00:13:30",1464438,7.817,299.4,6.943,1.857,6.819,101.2732,2.548,3.761,29.48,0,110,13.22,3.31,261.4
"2016-03-17 00:14:00",1464439,9.66,294,7.383,1.151,7.402,101.2701,2.54,3.69,31.43,0,110,13.23,3.30,256.0
"2016-03-17 00:14:30",1464440,9.64,292.4,7.669,1.425,8.22,101.2673,2.533,3.749,32.41,0,110,13.23,3.29,254.4
"2016-03-17 00:15:00",1464441,9.35,293,7.243,1.277,8.06,101.2679,2.534,3.793,32.56,0,110,13.23,3.30,255.0
"2016-03-17 00:15:30",1464442,8.43,294.3,9.21,1.542,8.16,101.2552,2.502,3.773,32.08,0,110,13.23,3.26,256.3
"2016-03-17 00:16:00",1464443,8.67,300.7,10.81,1.556,7.64,101.2529,2.496,3.768,31.05,0,110,13.23,3.26,262.7
"2016-03-17 00:16:30",1464444,7.601,295,8.61,1.08,6.499,101.2529,2.496,3.689,30.45,0,110,13.23,3.26,257.0
"2016-03-17 00:17:00",1464445,7.792,304.3,10.05,1.518,7.564,101.2541,2.499,3.635,28.9,0,110,13.23,3.26,266.3
"2016-03-17 00:17:30",1464446,6.77,309.4,9.34,1.427,7.504,101.2541,2.499,3.648,28.51,0,110,13.23,3.26,271.4
"2016-03-17 00:18:00",1464447,7.087,303.2,6.578,1.378,7.323,101.2544,2.5,3.681,28.42,0,110,13.23,3.26,265.2
"2016-03-17 00:18:30",1464448,9.8,298.4,8.49,1.288,8.12,101.2538,2.498,3.732,28.96,0,110,13.23,3.26,260.4
"2016-03-17 00:19:00",1464449,10.34,303.7,10.7,1.337,8.6,101.2547,2.501,3.731,28.94,0,110,13.23,3.26,265.7
"2016-03-17 00:19:30",1464450,9.28,316.5,7.239,1.448,8.35,101.2544,2.5,3.71,29.33,0,110.1,13.23,3.26,278.5
"2016-03-17 00:20:00",1464451,8.77,310.1,11.86,1.358,7.881,101.2544,2.5,3.682,29.58,0,110,13.23,3.26,272.1
"2016-03-17 00:20:30",1464452,8.94,289.8,8.97,1.664,8.4,101.2547,2.501,3.724,29.65,0,110,13.23,3.26,251.8
"2016-03-17 00:21:00",1464453,8.33,308,7.9,1.37,6.914,101.2538,2.498,3.628,30.14,0,110,13.23,3.26,270.0
"2016-03-17 00:21:30",1464454,9.77,301.2,10.02,1.688,7.926,101.2513,2.492,3.677,30.77,0,110,13.23,3.25,263.2
"2016-03-17 00:22:00",1464455,8.4,299.9,7.637,1.426,8.66,101.24,2.463,3.726,30.29,0,110,13.23,3.22,261.9
"2016-03-17 00:22:30",1464456,8.86,295.6,7.441,1.333,8.92,101.2335,2.447,3.729,31.27,0,110,13.23,3.21,257.6
"2016-03-17 00:23:00",1464457,8.82,297.4,6.425,1.255,8.84,101.2213,2.416,3.726,31.87,0,110,13.23,3.18,259.4
"2016-03-17 00:23:30",1464458,7.946,298.9,7.462,1.273,8.44,101.2207,2.414,3.668,31.61,0,110,13.23,3.17,260.9
"2016-03-17 00:24:00",1464459,7.171,301,8.79,1.246,6.67,101.2182,2.408,3.507,30.6,0,110,13.23,3.17,263.0
"2016-03-17 00:24:30",1464460,5.921,291.2,2.286,0.263,4.9,101.2044,2.372,3.464,29.88,0,110,13.28,3.13,253.2
"2016-03-17 00:25:00",1464461,7.209,304.9,8.68,1.455,7.338,101.1916,2.34,3.611,29.59,0,110,13.23,3.10,266.9
"2016-03-17 00:25:30",1464462,7.565,315,7.609,1.394,8.32,101.1868,2.328,3.611,29.31,0,110,13.23,3.09,277.0
"2016-03-17 00:26:00",1464463,8.42,318.9,7.032,1.391,8.98,101.1868,2.328,3.671,29.39,0,110,13.23,3.09,280.9
"2016-03-17 00:26:30",1464464,8.31,299.5,9.75,1.363,8.26,101.1812,2.313,3.568,30.39,0,110,13.23,3.07,261.5
"2016-03-17 00:27:00",1464465,7.251,299.2,7.699,1.318,7.804,101.1719,2.289,3.582,31.72,0,110,13.23,3.05,261.2
"2016-03-17 00:27:30",1464466,7.462,300.8,7.825,1.343,7.044,101.1569,2.251,3.449,32.19,0,110,13.23,3.01,262.8
"2016-03-17 00:28:00",1464467,7.319,296.6,8.33,1.551,7.379,101.1529,2.241,3.54,32.58,0,110,13.23,3.00,258.6
"2016-03-17 00:28:30",1464468,6.505,296.6,9.04,1.318,6.639,101.1504,2.235,3.406,32.78,0,110,13.23,2.99,258.6
"2016-03-17 00:29:00",1464469,7.143,297.2,7.795,1.372,7.818,101.1371,2.201,3.497,33.48,0,110,13.23,2.96,259.2
"2016-03-17 00:29:30",1464470,6.969,299.5,7.737,1.473,8.05,101.1221,2.162,3.499,33.96,0,110,13.23,2.92,261.5
"2016-03-17 00:30:00",1464471,6.002,299.7,6.515,1.492,7.462,101.119,2.154,3.417,34.16,0,110,13.23,2.91,261.7
"2016-03-17 00:30:30",1464472,6.19,292.2,6.504,1.445,7.597,101.1176,2.151,3.477,34.33,0,110,13.24,2.91,254.2
"2016-03-17 00:31:00",1464473,5.851,290,7.425,1.301,6.399,101.0981,2.101,3.319,34.4,0,110,13.24,2.86,252.0
"2016-03-17 00:31:30",1464474,5.683,284.9,7.972,1.41,6.743,101.0854,2.069,3.42,34.71,0,110,13.24,2.83,246.9
"2016-03-17 00:32:00",1464475,6.856,294.8,7.959,1.304,7.652,101.0854,2.069,3.343,34.62,0,110,13.24,2.83,256.8
"2016-03-17 00:32:30",1464476,6.664,295.6,10.15,1.354,8.15,101.0877,2.075,3.388,34.38,0,110,13.24,2.83,257.6
"2016-03-17 00:33:00",1464477,6.541,291.2,7.536,1.407,7.344,101.0801,2.055,3.36,34.73,0,110,13.25,2.81,253.2
"2016-03-17 00:33:30",1464478,7.647,290.4,6.843,1.405,7.64,101.0651,2.017,3.288,34.99,0,110,13.25,2.78,252.4
"2016-03-17 00:34:00",1464479,7.844,297.1,8.03,1.436,7.577,101.0623,2.01,3.272,34.74,0,110,13.25,2.77,259.1
"2016-03-17 00:34:30",1464480,6.509,292.7,7.563,1.252,6.645,101.0663,2.02,3.296,34.49,0,109.9,13.25,2.78,254.7
"2016-03-17 00:35:00",1464481,6.563,291.2,7.709,1.361,7.972,101.0573,1.997,3.31,35.5,0,109.9,13.25,2.76,253.2
"2016-03-17 00:35:30",1464482,5.721,286.9,7.536,1.345,6.722,101.0514,1.982,3.245,35.57,0,109.9,13.26,2.74,248.9
"2016-03-17 00:36:00",1464483,6.805,289.2,7.353,1.32,7.675,101.0436,1.962,3.231,35.44,0,109.9,13.25,2.72,251.2
"2016-03-17 00:36:30",1464484,7.023,294.5,7.488,1.422,6.81,101.0433,1.961,3.224,35.48,0,109.9,13.26,2.72,256.5
"2016-03-17 00:37:00",1464485,6.673,299.3,8.54,1.445,7.122,101.0357,1.942,3.202,35.33,0,109.9,13.26,2.70,261.3
"2016-03-17 00:37:30",1464486,7.373,298,5.491,1.364,7.605,101.0258,1.917,3.209,34.88,0,109.9,13.26,2.68,260.0
"2016-03-17 00:38:00",1464487,6.797,296.4,6.449,1.49,7.97,101.0156,1.891,3.204,34.81,0,109.9,13.26,2.65,258.4
"2016-03-17 00:38:30",1464488,7.064,290,7.499,1.371,7.064,101.0165,1.893,3.133,34.26,0,109.9,13.26,2.65,252.0
"2016-03-17 00:39:00",1464489,7.781,292.6,6.862,1.407,7.302,101.0165,1.893,3.148,34,0,109.9,13.26,2.65,254.6
"2016-03-17 00:39:30",1464490,7.962,292.4,7.119,1.378,8.47,101.0077,1.871,3.136,33.71,0,109.9,13.26,2.63,254.4
"2016-03-17 00:40:00",1464491,7.915,288.5,6.209,1.468,7.399,100.9967,1.842,3.053,33.61,0,109.9,13.26,2.60,250.5
"2016-03-17 00:40:30",1464492,7.567,289.2,7.758,1.28,7.228,100.9939,1.835,3.114,34.71,0,109.9,13.26,2.59,251.2
"2016-03-17 00:41:00",1464493,7.393,286.9,6.648,1.375,7.814,100.9846,1.811,3.074,35.09,0,109.9,13.26,2.57,248.9
"2016-03-17 00:41:30",1464494,7.716,290.4,7.241,1.475,8.16,100.9837,1.809,3.089,35.42,0,109.9,13.26,2.57,252.4
"2016-03-17 00:42:00",1464495,8.04,290,6.243,1.313,8.59,100.9837,1.809,3.064,35.26,0,109.9,13.26,2.57,252.0
"2016-03-17 00:42:30",1464496,7.834,282.6,7.895,1.28,7.302,100.9764,1.791,3.013,35.69,0,109.9,13.26,2.55,244.6
"2016-03-17 00:43:00",1464497,7.722,281.3,7.059,1.358,7.331,100.9668,1.766,3.055,35.67,0,109.9,13.26,2.52,243.3
"2016-03-17 00:43:30",1464498,8.01,283.1,7.085,1.311,7.6,100.9566,1.74,3.066,35.82,0,109.9,13.26,2.50,245.1
"2016-03-17 00:44:00",1464499,8.77,280.4,6.884,1.232,7.936,100.9501,1.723,2.976,35.89,0,109.9,13.26,2.48,242.4
"2016-03-17 00:44:30",1464500,8.64,282.2,7.383,1.373,8.06,100.9498,1.723,3.04,36.08,0,109.9,13.26,2.48,244.2
"2016-03-17 00:45:00",1464501,8.88,284.4,7.336,1.332,8.56,100.9504,1.724,3.038,36.04,0,109.8,13.26,2.48,246.4
"2016-03-17 00:45:30",1464502,8.97,281.4,6.748,1.262,8.96,100.9427,1.705,3.058,36.01,0,109.9,13.26,2.46,243.4
"2016-03-17 00:46:00",1464503,8.73,280.2,7.115,1.303,8.35,100.94,1.698,3.009,35.74,0,109.9,13.26,2.46,242.2
"2016-03-17 00:46:30",1464504,8.5,280.6,6.733,1.359,8.13,100.9312,1.675,2.961,35.57,0,109.9,13.26,2.43,242.6
"2016-03-17 00:47:00",1464505,7.536,276.3,6.636,1.305,5.873,100.927,1.665,2.82,35.65,0,109.8,13.26,2.42,238.3
"2016-03-17 00:47:30",1464506,7.242,274.8,7.153,1.291,6.494,100.9293,1.67,2.91,35.78,0,109.8,13.27,2.43,236.8
"2016-03-17 00:48:00",1464507,8.41,282.4,6.574,1.265,8.48,100.9327,1.679,2.942,35.77,0,109.8,13.27,2.44,244.4
"2016-03-17 00:48:30",1464508,8.74,284.3,6.985,1.358,8.09,100.9341,1.683,2.89,35.66,0,109.8,13.27,2.44,246.3
"2016-03-17 00:49:00",1464509,8.92,285.5,7.035,1.275,8.3,100.9271,1.665,2.941,35.65,0,109.8,13.27,2.42,247.5
"2016-03-17 00:49:30",1464510,8.76,286,6.714,1.277,8.43,100.9194,1.645,2.937,35.71,0,109.8,13.27,2.40,248.0
"2016-03-17 00:50:00",1464511,8.59,285.8,6.862,1.393,8.24,100.9172,1.639,2.915,35.73,0,109.8,13.27,2.40,247.8
"2016-03-17 00:50:30",1464512,8.92,286.8,7.005,1.339,8.12,100.9166,1.638,2.888,35.67,0,109.8,13.27,2.40,248.8
"2016-03-17 00:51:00",1464513,8.07,278.3,6.545,1.177,6.229,100.9082,1.617,2.809,35.8,0,109.8,13.27,2.37,240.3
"2016-03-17 00:51:30",1464514,8.7,285.2,6.858,1.495,7.118,100.9076,1.615,2.753,36.08,0,109.8,13.27,2.37,247.2
"2016-03-17 00:52:00",1464515,9.08,285.7,6.522,1.419,7.354,100.9085,1.617,2.901,36.31,0,109.8,13.27,2.38,247.7
"2016-03-17 00:52:30",1464516,9.9,288.1,6.965,1.22,8.9,100.9085,1.617,2.874,36.38,0,109.8,13.27,2.38,250.1
"2016-03-17 00:53:00",1464517,9.77,289.5,6.439,1.319,8.88,100.9102,1.622,2.895,36.23,0,109.8,13.27,2.38,251.5
"2016-03-17 00:53:30",1464518,10.26,289.7,6.799,1.305,7.899,100.9125,1.627,2.892,36.26,0,109.8,13.27,2.39,251.7
"2016-03-17 00:54:00",1464519,10.49,289,7.273,1.271,8.11,100.9111,1.624,2.873,37.24,0,109.8,13.28,2.38,251.0
"2016-03-17 00:54:30",1464520,10.67,288.7,6.329,1.257,8,100.9035,1.604,2.886,38.01,0,109.8,13.27,2.36,250.7
"2016-03-17 00:55:00",1464521,10.44,288.6,6.976,1.245,8.42,100.8936,1.579,2.872,38.37,0,109.8,13.27,2.34,250.6
"2016-03-17 00:55:30",1464522,9.85,289.6,6.641,1.268,8.25,100.8873,1.563,2.867,37.73,0,109.8,13.27,2.32,251.6
"2016-03-17 00:56:00",1464523,8.42,288.4,7.099,1.457,8.03,100.8828,1.552,2.855,36.9,0,109.8,13.28,2.31,250.4
"2016-03-17 00:56:30",1464524,7.843,287.6,7.373,1.306,7.71,100.8822,1.55,2.808,36.1,0,109.8,13.28,2.31,249.6
"2016-03-17 00:57:00",1464525,6.594,280.9,7.515,1.255,6.643,100.8822,1.55,2.759,35.9,0,109.8,13.28,2.31,242.9
"2016-03-17 00:57:30",1464526,7.25,286.2,6.092,1.382,7.018,100.8822,1.55,2.695,35.68,0,109.8,13.28,2.31,248.2
"2016-03-17 00:58:00",1464527,7.076,285.2,7.735,1.383,6.833,100.882,1.55,2.655,35.47,0,109.8,13.28,2.31,247.2
"2016-03-17 00:58:30",1464528,7.247,288.2,8.19,1.395,7.067,100.8817,1.549,2.708,35.45,0,109.7,13.28,2.31,250.2
"2016-03-17 00:59:00",1464529,6.636,300.8,8.41,1.379,7.924,100.8786,1.541,2.778,34.47,0,109.8,13.28,2.30,262.8
"2016-03-17 00:59:30",1464530,6.815,313.1,8.14,1.33,7.929,100.8774,1.538,2.769,33.6,0,109.8,13.28,2.30,275.1
"2016-03-17 01:00:00",1464531,6.152,301.2,13.04,1.403,7.998,100.8809,1.547,2.769,33.36,0,109.8,13.28,2.30,263.2
"2016-03-17 01:00:30",1464532,5.302,299,7.739,1.294,6.379,100.8837,1.554,2.705,33.46,0,109.8,13.28,2.31,261.0
"2016-03-17 01:01:00",1464533,5.288,295.6,5.145,1.101,5.745,100.8866,1.561,2.57,33.53,0,109.8,13.28,2.32,257.6
"2016-03-17 01:01:30",1464534,6.828,303.8,7.576,1.511,7.78,100.8897,1.569,2.736,33.13,0,109.8,13.28,2.33,265.8
"2016-03-17 01:02:00",1464535,6.578,307.5,9.25,1.308,8.43,100.8942,1.581,2.769,32.65,0,109.8,13.28,2.34,269.5
"2016-03-17 01:02:30",1464536,6.538,300,7.767,1.35,8.33,100.8957,1.585,2.806,32.83,0,109.8,13.28,2.34,262.0
"2016-03-17 01:03:00",1464537,6.406,294,7.031,1.304,8.34,100.8968,1.588,2.815,33.76,0,109.8,13.28,2.35,256.0
"2016-03-17 01:03:30",1464538,5.945,291.9,8.5,1.343,7.053,100.8994,1.594,2.756,34.53,0,109.8,13.28,2.35,253.9
"2016-03-17 01:04:00",1464539,4.898,289.1,4.002,0.774,5.006,100.8977,1.59,2.602,34.54,0,109.8,13.29,2.35,251.1
"2016-03-17 01:04:30",1464540,6.355,297.7,6.796,1.485,7.036,100.9016,1.6,2.706,34.8,0,109.8,13.29,2.36,259.7
"2016-03-17 01:05:00",1464541,5.776,301.4,7.493,1.264,7.508,100.9025,1.602,2.829,34.7,0,109.8,13.29,2.36,263.4
"2016-03-17 01:05:30",1464542,6.564,302.9,7.483,1.394,7.749,100.9045,1.607,2.812,33.97,0,109.8,13.29,2.36,264.9
"2016-03-17 01:06:00",1464543,6.487,302.7,7.197,1.314,8.19,100.9068,1.613,2.844,33.7,0,109.8,13.29,2.37,264.7
"2016-03-17 01:06:30",1464544,5.743,301.4,5.274,1.519,6.921,100.909,1.619,2.767,33.68,0,109.8,13.29,2.38,263.4
"2016-03-17 01:07:00",1464545,5.401,302.8,12.79,1.19,6.122,100.9124,1.627,2.717,34.1,0,109.8,13.29,2.39,264.8
"2016-03-17 01:07:30",1464546,5.439,305.1,7.219,1.23,6.496,100.9125,1.627,2.812,33.96,0,109.8,13.29,2.39,267.1
"2016-03-17 01:08:00",1464547,6.948,309.3,7.627,1.254,7.771,100.9147,1.633,2.746,33.67,0,109.8,13.29,2.39,271.3
"2016-03-17 01:08:30",1464548,6.9,298.2,7.916,1.385,7.814,100.9173,1.64,2.889,34.79,0,109.8,13.3,2.40,260.2
"2016-03-17 01:09:00",1464549,6.428,296.3,9.6,1.332,8.13,100.9136,1.63,2.87,35.25,0,109.8,13.29,2.39,258.3
"2016-03-17 01:09:30",1464550,6.182,295.5,9.1,1.289,7.152,100.9153,1.635,2.894,34.98,0,109.8,13.29,2.39,257.5
"2016-03-17 01:10:00",1464551,6.667,302.2,9.2,1.339,7.462,100.9159,1.636,2.779,34.47,0,109.8,13.3,2.39,264.2
"2016-03-17 01:10:30",1464552,6.158,302.7,8.98,1.124,6.144,100.9162,1.637,2.787,33.78,0,109.8,13.3,2.39,264.7
"2016-03-17 01:11:00",1464553,5.998,304.4,6.895,1.268,6.851,100.9179,1.641,2.775,33.54,0,109.8,13.3,2.40,266.4
"2016-03-17 01:11:30",1464554,6.664,299.8,7.074,1.368,8.1,100.9165,1.638,2.884,33.69,0,109.8,13.3,2.40,261.8
"2016-03-17 01:12:00",1464555,6.971,298.2,7.015,1.426,7.465,100.9199,1.646,2.866,34.3,0,109.8,13.3,2.40,260.2
"2016-03-17 01:12:30",1464556,6.932,291.3,7.392,1.321,7.446,100.9204,1.648,2.807,34.07,0,109.8,13.3,2.41,253.3
"2016-03-17 01:13:00",1464557,7.143,289.7,6.688,1.383,7.058,100.923,1.654,2.843,34.53,0,109.8,13.3,2.41,251.7
"2016-03-17 01:13:30",1464558,7.377,290.3,7.301,1.319,6.329,100.921,1.649,2.747,34.96,0,109.8,13.3,2.41,252.3
"2016-03-17 01:14:00",1464559,8.93,296.2,6.661,1.215,8.16,100.9204,1.648,2.859,35.9,0,109.8,13.3,2.41,258.2
"2016-03-17 01:14:30",1464560,9.02,295.5,6.85,1.371,8.07,100.9193,1.645,2.911,36.52,0,109.8,13.3,2.40,257.5
"2016-03-17 01:15:00",1464561,10.4,295.4,6.333,1.229,8.16,100.9188,1.644,2.922,37.88,0,109.8,13.29,2.40,257.4
"2016-03-17 01:15:30",1464562,10.31,294.6,6.716,1.222,8.52,100.9165,1.638,2.914,38.69,0,109.8,13.29,2.40,256.6
"2016-03-17 01:16:00",1464563,10.17,297.1,6.236,1.314,8.39,100.9165,1.638,2.921,38.37,0,109.8,13.29,2.40,259.1
"2016-03-17 01:16:30",1464564,9.04,292.4,6.935,1.331,8.07,100.9165,1.638,2.887,36.74,0,109.8,13.29,2.40,254.4
"2016-03-17 01:17:00",1464565,8.42,292.9,7.108,1.296,7.963,100.9131,1.629,2.865,36.26,0,109.8,13.29,2.39,254.9
"2016-03-17 01:17:30",1464566,7.832,291.7,7.155,1.373,7.857,100.9066,1.613,2.871,35.27,0,109.8,13.29,2.37,253.7
"2016-03-17 01:18:00",1464567,8.33,281.9,5.961,1.417,6.245,100.9024,1.602,2.727,35.8,0,109.8,13.29,2.36,243.9
"2016-03-17 01:18:30",1464568,8.84,283.9,6.485,1.297,6.343,100.8975,1.589,2.787,37.78,0,109.8,13.29,2.35,245.9
"2016-03-17 01:19:00",1464569,9.48,289.6,6.864,1.355,7.807,100.8902,1.571,2.821,37.83,0,109.8,13.29,2.33,251.6
"2016-03-17 01:19:30",1464570,10.02,289.6,6.923,1.38,7.734,100.8837,1.554,2.82,38.06,0,109.8,13.29,2.31,251.6
"2016-03-17 01:20:00",1464571,10.05,292,6.584,1.339,7.919,100.8826,1.551,2.85,38.83,0,109.8,13.29,2.31,254.0
"2016-03-17 01:20:30",1464572,10.46,294.2,6.301,1.252,8.34,100.8826,1.551,2.885,39.23,0,109.8,13.3,2.31,256.2
"2016-03-17 01:21:00",1464573,10.61,293.2,6.621,1.179,8.35,100.8826,1.551,2.86,38.98,0,109.8,13.3,2.31,255.2
"2016-03-17 01:21:30",1464574,10.35,290.1,6.867,1.248,8.27,100.8823,1.55,2.844,39.46,0,109.8,13.3,2.31,252.1
"2016-03-17 01:22:00",1464575,10.22,288,6.445,1.293,8.49,100.8792,1.543,2.829,40.13,0,109.8,13.3,2.30,250.0
"2016-03-17 01:22:30",1464576,9.99,290.3,6.649,1.409,8.36,100.8667,1.511,2.843,40.68,0,109.8,13.3,2.27,252.3
"2016-03-17 01:23:00",1464577,10.18,290.5,6.747,1.23,8.12,100.8639,1.504,2.833,40.89,0,109.8,13.3,2.26,252.5
"2016-03-17 01:23:30",1464578,9.42,292.9,6.618,1.21,8.15,100.8568,1.485,2.816,39.74,0,109.8,13.3,2.24,254.9
"2016-03-17 01:24:00",1464579,8.57,293.6,6.688,1.28,7.763,100.8486,1.465,2.767,38.51,0,109.8,13.3,2.22,255.6
"2016-03-17 01:24:30",1464580,7.948,292,7.655,1.342,7.364,100.8489,1.465,2.736,37.69,0,109.8,13.3,2.22,254.0
"2016-03-17 01:25:00",1464581,7.308,286.6,6.319,1.171,5.619,100.8503,1.469,2.606,37.61,0,109.8,13.3,2.23,248.6
"2016-03-17 01:25:30",1464582,7.941,289.7,7.091,1.343,6.763,100.8512,1.471,2.7,38.02,0,109.7,13.3,2.23,251.7
"2016-03-17 01:26:00",1464583,8.27,289.2,7.393,1.579,6.885,100.8509,1.47,2.655,37.84,0,109.8,13.3,2.23,251.2
"2016-03-17 01:26:30",1464584,8.57,292.3,6.417,1.365,7.659,100.8472,1.461,2.745,38.19,0,109.7,13.3,2.22,254.3
"2016-03-17 01:27:00",1464585,8.07,291.8,7.048,1.355,8.09,100.8436,1.452,2.725,37.83,0,109.7,13.3,2.21,253.8
"2016-03-17 01:27:30",1464586,9.52,288,7.518,1.479,8.16,100.8427,1.45,2.744,38.66,0,109.7,13.31,2.21,250.0
"2016-03-17 01:28:00",1464587,9.01,292.1,6.617,1.34,8.85,100.8416,1.447,2.731,38.4,0,109.7,13.31,2.20,254.1
"2016-03-17 01:28:30",1464588,8.63,293.6,6.708,1.3,8.59,100.8442,1.453,2.747,36.69,0,109.7,13.31,2.21,255.6
"2016-03-17 01:29:00",1464589,8.78,293.4,7.343,1.408,7.96,100.843,1.45,2.726,36.63,0,109.7,13.31,2.21,255.4
"2016-03-17 01:29:30",1464590,7.846,292.2,8.17,1.356,6.521,100.8447,1.455,2.614,36.23,0,109.7,13.31,2.21,254.2
"2016-03-17 01:30:00",1464591,8.2,293.7,7.485,1.408,6.731,100.8487,1.465,2.63,36.82,0,109.7,13.31,2.22,255.7
"2016-03-17 01:30:30",1464592,7.893,300.9,8.67,1.368,6.72,100.8549,1.481,2.627,36.26,0,109.7,13.31,2.24,262.9
"2016-03-17 01:31:00",1464593,8.18,301.4,7.526,1.398,8.7,100.8643,1.505,2.751,35.58,0,109.7,13.31,2.26,263.4
"2016-03-17 01:31:30",1464594,9.5,304.9,8.01,1.331,8.53,100.8657,1.508,2.719,35.24,0,109.7,13.31,2.27,266.9
"2016-03-17 01:32:00",1464595,8.31,308.4,8.53,1.377,8.55,100.8669,1.511,2.736,34.97,0,109.7,13.3,2.27,270.4
"2016-03-17 01:32:30",1464596,8.22,314.2,8.52,1.377,8.25,100.8725,1.526,2.73,34.18,0,109.7,13.3,2.28,276.2
"2016-03-17 01:33:00",1464597,8.63,317.4,6.662,1.466,8.1,100.8858,1.56,2.737,33.88,0,109.7,13.3,2.32,279.4
"2016-03-17 01:33:30",1464598,6.983,305.5,5.907,1.206,6.983,100.8904,1.571,2.68,33.78,0,109.7,13.3,2.33,267.5
"2016-03-17 01:34:00",1464599,7.465,307.3,5.929,1.412,7.682,100.9003,1.596,2.677,34.12,0,109.7,13.3,2.35,269.3
"2016-03-17 01:34:30",1464600,7.778,302.6,8.19,1.375,8.11,100.9011,1.598,2.788,34.8,0,109.7,13.3,2.36,264.6
"2016-03-17 01:35:00",1464601,8.57,310,10.85,1.37,8.48,100.902,1.601,2.742,35.29,0,109.7,13.3,2.36,272.0
"2016-03-17 01:35:30",1464602,8.53,315.1,7.568,1.308,8.65,100.9096,1.62,2.83,34.61,0,109.7,13.3,2.38,277.1
"2016-03-17 01:36:00",1464603,8.36,313.5,7.926,1.4,8.41,100.9257,1.661,2.852,34.89,0,109.7,13.3,2.42,275.5
"2016-03-17 01:36:30",1464604,7.421,310.1,7.58,1.41,7.832,100.9359,1.687,2.842,35.28,0,109.7,13.3,2.45,272.1
"2016-03-17 01:37:00",1464605,7.608,294.8,9.32,1.429,6.862,100.9353,1.686,2.828,36.27,0,109.7,13.31,2.44,256.8
"2016-03-17 01:37:30",1464606,7.856,303.2,6.267,1.526,7.125,100.9356,1.687,2.751,36.06,0,109.7,13.31,2.44,265.2
"2016-03-17 01:38:00",1464607,7.65,308.5,8.51,1.243,7.309,100.937,1.69,2.85,36.05,0,109.7,13.31,2.45,270.5
"2016-03-17 01:38:30",1464608,8.29,322.1,8.42,1.566,8.33,100.9379,1.692,2.887,35.86,0,109.7,13.31,2.45,284.1
"2016-03-17 01:39:00",1464609,8.61,319.1,9.3,1.438,8.18,100.943,1.705,2.918,35.2,0,109.7,13.31,2.46,281.1
"2016-03-17 01:39:30",1464610,9.15,318.1,7.478,1.51,8.31,100.9475,1.717,2.921,35.8,0,109.7,13.31,2.47,280.1
"2016-03-17 01:40:00",1464611,8.33,317.6,7.333,1.881,8.61,100.9489,1.721,2.941,35.64,0,109.8,13.31,2.48,279.6
"2016-03-17 01:40:30",1464612,7.076,309,8.44,1.407,8.24,100.9549,1.736,2.948,35.81,0,109.7,13.31,2.49,271.0
"2016-03-17 01:41:00",1464613,6.621,298,7.645,1.403,6.766,100.9566,1.74,2.831,36,0,109.7,13.31,2.50,260.0
"2016-03-17 01:41:30",1464614,5.447,299.9,7.307,1.185,6.075,100.9611,1.752,2.831,35.97,0,109.7,13.31,2.51,261.9
"2016-03-17 01:42:00",1464615,5.616,301.3,7.596,1.136,6.498,100.9594,1.747,2.899,35.73,0,109.7,13.31,2.51,263.3
"2016-03-17 01:42:30",1464616,6.506,306.1,8.32,1.393,7.893,100.9626,1.755,2.95,35.63,0,109.7,13.31,2.51,268.1
"2016-03-17 01:43:00",1464617,6.981,310.2,7.199,1.313,8.12,100.9603,1.749,2.967,35.84,0,109.7,13.31,2.51,272.2
"2016-03-17 01:43:30",1464618,7.307,310.7,7.623,1.378,8.47,100.9589,1.746,2.987,35.78,0,109.7,13.31,2.50,272.7
"2016-03-17 01:44:00",1464619,7.315,304.7,8.92,1.503,7.398,100.9614,1.752,2.862,35.62,0,109.7,13.31,2.51,266.7
"2016-03-17 01:44:30",1464620,5.98,301.1,8.19,1.429,6.604,100.9612,1.752,2.965,35.54,0,109.7,13.31,2.51,263.1
"2016-03-17 01:45:00",1464621,5.91,308.4,7.81,1.315,6.461,100.962,1.754,2.862,35.38,0,109.7,13.31,2.51,270.4
"2016-03-17 01:45:30",1464622,7.443,320.7,8.9,1.356,7.647,100.9592,1.747,2.941,35.26,0,109.7,13.31,2.50,282.7
"2016-03-17 01:46:00",1464623,7.59,322.8,7.333,1.328,8.03,100.9595,1.747,2.999,35.13,0,109.7,13.31,2.51,284.8
"2016-03-17 01:46:30",1464624,6.779,317,7.914,1.344,8.86,100.9583,1.744,2.993,35.07,0,109.7,13.31,2.50,279.0
"2016-03-17 01:47:00",1464625,5.931,309.3,11.28,1.455,7.405,100.96,1.749,2.9,34.95,0,109.7,13.31,2.51,271.3
"2016-03-17 01:47:30",1464626,6.695,299.6,9.98,1.58,7.14,100.9626,1.755,2.907,35.04,0,109.7,13.31,2.51,261.6
"2016-03-17 01:48:00",1464627,7.371,295.9,6.636,1.434,7.026,100.9623,1.755,2.958,35.05,0,109.7,13.31,2.51,257.9
"2016-03-17 01:48:30",1464628,8.25,299.9,5.947,1.413,7.552,100.9654,1.763,2.897,35.79,0,109.7,13.31,2.52,261.9
"2016-03-17 01:49:00",1464629,7.526,301.2,7.866,1.291,8.35,100.962,1.754,2.997,36.01,0,109.7,13.31,2.51,263.2